Wind_Speed
4 5 6 6 6 5 5 5 5 6 10 10 17 20 19 20 21 23 23 23 22 26 27 28 23 21 9 5 8 10 9 7 13 19 20 22 22 26
2 3 4 4 5 6 6 5 3 5 6 12 15 18 16 17 19 21 23 23 20 22 24 26 27 24 21 13 5 4 7 9 8 11 17 22 14 16
1 2 3 3 3 5 6 4 4 5 5 7 13 13 13 11 14 18 21 26 26 26 25 24 23 24 21 19 18 16 22 20 17 15 14 15 18 18
1 0 2 2 3 6 7 6 5 4 6 6 10 9 12 13 14 15 19 22 25 26 26 25 24 23 20 18 15 16 19 21 24 26 29 23 28 25
4 2 1 3 4 6 7 8 6 6 7 7 8 8 10 11 13 11 14 19 22 24 24 24 25 26 25 22 23 18 13 15 22 22 19 23 24 25
5 4 3 2 4 6 7 7 7 7 6 6 6 6 8 9 12 11 10 14 19 22 25 26 25 26 25 26 29 28 23 20 13 12 19 25 27 29
6 5 4 3 3 4 6 6 8 8 6 6 6 6 6 7 12 15 13 9 14 20 23 26 26 26 30 26 27 29 29 26 22 18 15 17 15 15
7 6 4 3 2 3 4 5 6 7 7 8 8 9 9 9 10 10 14 11 7 13 18 23 25 27 27 29 25 25 27 30 27 23 21 20 17 12
8 7 5 4 3 2 2 4 4 4 6 9 10 11 11 11 10 9 10 12 10 9 11 17 19 24 23 20 21 22 21 24 22 22 22 20 19 16
11 8 6 5 4 2 1 1 2 2 4 6 8 11 12 13 11 9 8 9 9 6 6 9 12 20 21 21 18 16 19 16 16 16 16 19 20 19
12 11 9 6 4 3 2 1 1 3 5 6 7 8 10 11 12 11 8 6 3 4 3 5 6 11 16 20 17 14 15 15 16 12 14 16 18 17
14 13 11 8 5 3 3 2 1 1 1 3 4 5 6 7 7 8 9 8 3 3 1 3 5 8 6 16 14 12 9 12 13 17 12 13 16 16
13 12 11 9 8 6 5 4 3 2 1 1 1 2 3 5 7 8 9 10 9 7 5 3 3 4 5 5 11 13 10 9 10 12 14 17 16 16
11 11 11 10 8 7 6 5 5 3 1 1 1 0 1 3 5 7 8 10 11 9 6 6 6 6 5 2 6 8 7 8 7 7 5 10 14 17
11 10 10 10 9 8 8 7 6 4 3 3 3 2 3 4 4 5 7 9 9 9 6 7 7 8 7 8 7 7 2 4 6 7 8 10 12 15
13 11 11 12 11 11 9 9 8 7 6 5 3 4 3 2 2 3 4 5 8 9 9 4 5 5 7 9 9 9 9 4 3 5 7 10 12 13
16 13 13 13 12 12 11 10 9 8 7 6 6 3 5 6 2 2 3 4 4 6 8 8 5 4 5 5 7 8 10 9 10 8 5 8 10 11
18 16 15 14 14 13 12 9 8 9 7 6 7 7 6 7 6 4 4 5 6 3 5 6 8 5 5 4 7 8 10 11 10 12 10 10 7 6
18 17 17 16 16 14 12 8 8 9 8 7 8 8 9 8 8 7 4 7 7 4 4 6 8 5 1 2 4 6 10 12 11 11 10 12 12 11
15 15 17 16 14 13 13 12 11 10 9 7 7 8 10 10 9 9 6 4 8 6 5 4 5 4 3 3 4 2 7 9 11 14 13 12 13 13
13 15 16 14 13 14 14 14 12 11 10 10 8 8 10 11 10 10 8 7 8 9 9 9 8 6 8 7 4 5 7 9 10 11 12 15 18 16
17 18 18 16 14 13 14 14 14 14 13 12 9 8 9 10 11 10 9 9 11 10 10 10 10 10 10 10 9 9 11 13 13 11 10 10 15 15
15 17 16 14 13 13 15 16 15 15 12 10 10 9 10 10 11 12 12 11 11 12 12 11 10 10 9 10 11 12 13 15 15 15 13 12 12 10
Wind_Direction
11 7 4 2 355 5 10 11 1 336 315 304 343 344 349 352 351 351 357 360 5 10 14 14 9 11 18 316 281 274 252 196 224 228 233 230 234 244
356 6 6 7 7 18 15 29 360 317 298 329 331 337 348 1 13 11 12 10 15 19 24 20 21 17 15 53 111 187 205 225 176 181 211 217 219 236
305 14 11 17 28 33 35 38 27 5 352 323 321 335 348 356 359 6 11 13 19 23 26 31 30 24 16 21 49 95 121 147 164 158 160 181 160 157
226 54 26 48 54 49 39 31 32 20 6 323 335 337 346 348 350 359 9 12 16 21 24 26 32 39 32 23 25 44 75 99 129 143 145 165 153 158
215 189 117 85 65 57 47 39 36 15 4 340 331 343 349 357 352 352 3 14 17 24 29 30 35 39 43 48 50 43 39 57 80 108 145 134 140 136
207 195 177 108 76 63 54 48 45 36 25 17 18 13 16 23 20 23 10 5 20 27 35 36 36 44 45 45 46 46 49 51 48 56 63 96 122 122
203 201 182 128 80 68 63 54 51 48 43 37 33 31 19 19 23 29 28 357 6 25 32 37 37 40 44 46 45 44 43 50 52 53 66 66 67 71
206 205 184 142 116 85 69 58 50 55 52 52 51 43 30 17 14 20 32 25 10 20 26 32 32 39 48 45 46 54 48 49 52 48 48 46 40 49
214 209 198 183 164 114 73 55 43 37 44 49 46 47 42 31 24 27 28 24 31 26 20 34 31 40 39 50 55 59 65 59 48 56 53 42 41 35
211 208 204 196 181 170 120 60 32 40 52 43 37 34 32 29 27 23 17 10 11 3 355 36 33 39 35 40 53 71 68 65 61 52 38 34 36 34
208 207 203 198 193 201 212 272 342 15 38 39 35 33 24 20 23 20 9 355 357 36 36 9 355 356 12 37 46 55 63 67 48 29 31 32 37 36
209 204 200 199 204 222 230 251 288 344 25 44 33 32 26 25 24 29 35 34 44 44 57 24 343 341 335 26 29 48 58 60 58 55 51 45 42 38
208 205 201 203 211 216 228 247 254 270 273 86 46 29 33 30 26 27 29 34 43 62 67 54 35 356 342 346 19 35 33 50 55 53 55 28 35 43
216 208 206 207 212 219 232 237 254 265 236 254 277 22 21 29 29 27 33 37 37 44 45 57 57 49 32 7 24 33 38 37 36 51 27 12 20 23
216 215 212 212 214 219 226 229 238 239 254 256 279 324 21 14 25 19 21 30 47 47 35 29 43 43 49 55 38 32 72 45 11 8 1 358 8 13
223 221 213 215 217 221 224 229 237 243 247 258 271 307 327 1 324 336 355 6 13 27 36 19 359 14 38 47 38 42 42 44 350 323 334 332 337 349
224 225 220 220 219 219 221 222 224 233 242 259 273 280 285 292 297 265 289 313 333 10 21 34 21 345 10 31 28 44 41 37 30 23 343 316 318 332
223 224 221 221 225 231 230 224 228 232 232 244 261 268 267 279 291 296 260 258 282 325 350 6 7 343 313 346 23 37 24 23 22 15 12 12 11 353
225 225 220 225 233 234 240 248 252 251 251 242 250 259 267 271 281 285 268 234 247 262 304 341 1 12 57 98 15 13 10 6 358 7 359 357 357 357
215 225 222 225 234 239 247 253 263 264 261 259 250 255 258 262 273 282 282 244 224 237 252 297 338 353 11 5 4 4 345 336 342 346 339 335 330 336
242 241 232 228 233 243 246 254 261 260 264 271 267 260 258 258 264 273 270 248 232 234 249 267 291 302 302 294 264 279 303 310 326 326 319 318 324 334
244 234 228 230 242 249 249 253 262 270 272 272 274 265 260 259 261 266 269 259 255 255 263 270 278 282 281 271 278 288 295 299 303 299 298 316 325 327
223 218 226 237 249 252 253 257 260 261 262 264 269 270 263 262 257 265 270 265 263 268 274 282 284 290 275 266 274 287 296 301 306 314 313 311 309 303
Height
1489 1489 1490 1489 1489 1487 1484 1483 1483 1484 1483 1480 1476 1473 1469 1465 1461 1456 1451 1445 1438 1432 1424 1417 1410 1403 1394 1390 1387 1385 1383 1382 1384 1387 1390 1391 1397 1400
1489 1489 1490 1489 1488 1486 1483 1482 1483 1483 1483 1478 1476 1473 1469 1465 1462 1457 1452 1446 1439 1433 1427 1419 1412 1407 1401 1393 1389 1385 1382 1383 1383 1385 1386 1388 1395 1398
1488 1489 1489 1489 1487 1484 1482 1481 1482 1482 1481 1478 1476 1473 1469 1466 1463 1458 1454 1448 1441 1435 1428 1422 1418 1411 1405 1402 1396 1390 1382 1382 1382 1385 1385 1388 1392 1396
1488 1488 1489 1489 1487 1483 1482 1481 1480 1480 1479 1477 1476 1473 1469 1465 1462 1458 1454 1450 1445 1438 1433 1426 1421 1416 1411 1406 1403 1399 1392 1386 1380 1384 1385 1387 1388 1393
1488 1488 1489 1488 1486 1483 1482 1481 1481 1479 1477 1477 1475 1472 1469 1466 1463 1459 1456 1452 1447 1442 1437 1432 1426 1421 1416 1413 1409 1406 1402 1400 1394 1390 1390 1391 1390 1391
1487 1489 1488 1487 1485 1484 1482 1482 1480 1478 1478 1476 1474 1472 1470 1467 1464 1460 1457 1454 1450 1445 1440 1435 1431 1427 1422 1417 1413 1410 1408 1406 1405 1405 1400 1396 1394 1394
1486 1488 1487 1485 1484 1484 1482 1482 1480 1478 1478 1476 1474 1472 1470 1468 1464 1460 1457 1455 1452 1448 1444 1440 1436 1430 1426 1422 1420 1419 1414 1413 1412 1410 1409 1406 1407 1408
1485 1487 1486 1483 1484 1483 1482 1481 1480 1480 1479 1477 1475 1472 1470 1468 1466 1462 1459 1457 1455 1451 1448 1444 1440 1436 1432 1432 1430 1426 1424 1422 1419 1415 1413 1410 1414 1412
1483 1484 1484 1483 1482 1482 1482 1481 1481 1480 1479 1477 1476 1473 1471 1469 1466 1464 1462 1459 1457 1454 1451 1448 1446 1443 1441 1438 1436 1434 1431 1428 1426 1423 1418 1418 1416 1414
1482 1483 1483 1482 1481 1481 1481 1481 1481 1480 1478 1477 1475 1473 1471 1469 1467 1465 1462 1460 1458 1456 1453 1451 1450 1447 1446 1442 1439 1437 1435 1432 1430 1428 1426 1423 1419 1418
1479 1481 1480 1480 1479 1480 1480 1480 1480 1479 1478 1476 1475 1474 1472 1469 1466 1464 1463 1461 1459 1457 1455 1453 1451 1449 1448 1445 1443 1441 1439 1436 1434 1431 1427 1427 1427 1426
1478 1478 1477 1477 1478 1479 1479 1479 1479 1479 1477 1477 1475 1474 1473 1470 1468 1466 1463 1461 1460 1458 1457 1456 1453 1451 1449 1447 1446 1444 1443 1441 1439 1437 1436 1435 1432 1428
1476 1475 1474 1475 1476 1477 1477 1478 1478 1478 1477 1476 1475 1474 1472 1471 1468 1466 1464 1462 1460 1458 1457 1456 1455 1454 1452 1449 1448 1446 1445 1444 1443 1441 1438 1435 1433 1431
1474 1473 1472 1472 1473 1474 1476 1476 1477 1476 1476 1475 1474 1473 1472 1470 1469 1467 1465 1463 1461 1459 1458 1457 1456 1455 1453 1451 1450 1449 1447 1446 1445 1443 1441 1438 1436 1433
1471 1471 1471 1471 1471 1472 1474 1475 1475 1475 1475 1474 1473 1472 1471 1469 1468 1467 1466 1464 1463 1461 1459 1458 1457 1455 1454 1453 1452 1450 1448 1447 1445 1444 1442 1441 1440 1439
1468 1468 1468 1470 1472 1471 1471 1472 1473 1474 1474 1473 1472 1471 1470 1470 1468 1467 1466 1465 1463 1462 1461 1459 1458 1457 1455 1454 1453 1451 1450 1448 1447 1445 1443 1441 1439 1438
1465 1465 1466 1468 1470 1470 1470 1470 1471 1472 1472 1472 1471 1471 1469 1468 1468 1467 1466 1465 1464 1463 1462 1461 1459 1458 1457 1456 1455 1453 1452 1450 1448 1447 1445 1443 1440 1439
1461 1461 1462 1465 1468 1469 1470 1470 1470 1469 1470 1470 1469 1469 1468 1467 1466 1466 1466 1465 1464 1463 1462 1461 1460 1459 1457 1457 1456 1454 1453 1452 1450 1448 1446 1443 1442 1440
1458 1459 1460 1461 1464 1464 1466 1468 1469 1468 1468 1468 1468 1467 1466 1466 1465 1464 1464 1464 1463 1463 1461 1460 1459 1458 1456 1456 1456 1455 1454 1452 1450 1449 1446 1444 1442 1440
1454 1456 1457 1459 1460 1461 1463 1465 1466 1466 1465 1465 1465 1465 1464 1463 1463 1463 1462 1462 1462 1461 1460 1459 1459 1458 1456 1456 1455 1455 1453 1452 1450 1448 1445 1443 1442 1440
1452 1453 1455 1456 1457 1459 1460 1462 1463 1463 1463 1462 1462 1462 1461 1461 1461 1461 1460 1460 1460 1460 1459 1458 1457 1457 1456 1455 1454 1453 1452 1451 1450 1447 1444 1441 1438 1437
1448 1449 1452 1453 1455 1455 1458 1459 1459 1460 1459 1459 1459 1459 1459 1458 1458 1458 1458 1458 1457 1457 1456 1456 1455 1454 1454 1453 1451 1450 1449 1448 1446 1445 1443 1441 1438 1434
1444 1447 1449 1450 1452 1453 1454 1455 1456 1456 1456 1456 1456 1456 1456 1455 1456 1455 1455 1455 1454 1454 1453 1453 1452 1451 1450 1449 1448 1447 1446 1444 1441 1439 1439 1437 1434 1432